Location: Asheville, NC
(35.6000°N, 82.5500°W)
Time: 16:01:12
(UTC-04:00)

Iridium 28 - Pass Details

Date: 03 January 2018
Orbit: 771 x 775 km, 86.4° (Epoch: 22 June)

Event Time Altitude Azimuth Distance (km) Brightness Sun altitude
Rises 18:08:14 0° 7° (N) 3,257 8.5 -7.9°
Reaches altitude 10° 18:10:46 10° 16° (NNE) 2,325 7.6 -8.4°
Maximum altitude 18:15:33 36° 83° (E) 1,203 6.0 -9.3°
Drops below altitude 10° 18:20:17 10° 150° (SSE) 2,310 7.9 -10.2°
Sets 18:22:48 0° 158° (SSE) 3,233 8.7 -10.7°
